Mora, MN

11:53 AM CDT on September 29, 2016 (GMT -0500)
Mora Municipal

Weather History for KJMR - July, 2013

Change the Weather History Date:

Wednesday, July 10, 2013

  Actual Average Record
Temperature  
Mean Temperature 65 °F -  
Max Temperature 75 °F 83 °F 106 °F (1936)
Min Temperature 55 °F 54 °F 38 °F (1988)
Growing Degree Days 15 (Base 50)    
Moisture  
Dew Point 54 °F    
Average Humidity 67    
Maximum Humidity 88    
Minimum Humidity 44    
Precipitation  
Precipitation 0.00 in - - ()
Sea Level Pressure  
Sea Level Pressure 30.03 in    
Wind  
Wind Speed 7 mph (NW)    
Max Wind Speed 15 mph    
Max Gust Speed 21 mph    
Visibility 10 miles    
Events      
Averages and records for this station are not official NWS values.
T = Trace of Precipitation, MM = Missing Value Source: NWS Daily Summary

Daily Weather History Graph

Daily Weather History Graph

Search for Another Location

Airport or City:

Trip Planner

Search our weather history database for the weather conditions in past years. The results will help you decide how hot, cold, wet, or windy it might be!

Date:

Astronomy

Jul. 10, 2013 Rise Set
Actual Time 5:33 AM CDT 9:03 PM CDT
Civil Twilight 4:55 AM CDT 9:40 PM CDT
Nautical Twilight 4:06 AM CDT 10:29 PM CDT
Astronomical Twilight 3:01 AM CDT 11:33 PM CDT
Moon 8:05 AM CDT (7/10) 10:01 PM CDT (7/10)
Length of Visible Light 16h 44m
Length of Day
15h 30m
Waxing Crescent, 5% of the Moon is Illuminated
Jul 10
Waxing Crescent
Jul 15
First Quarter
Jul 22
Full
Jul 29
Last Quarter
Aug 6
New

Hourly Weather History & Observations

Time (CDT) Temp. Dew Point Humidity Pressure Visibility Wind Dir Wind Speed Gust Speed Precip Events Conditions
12:10 AM 64.4 °F 59.0 °F 83% 29.95 in 10.0 mi NW 8.1 mph - N/A   Overcast
12:30 AM 64.4 °F 57.2 °F 77% 29.95 in 10.0 mi NW 6.9 mph - N/A   Overcast
12:51 AM 64.4 °F 55.4 °F 73% 29.96 in 10.0 mi NW 9.2 mph - N/A   Scattered Clouds
1:10 AM 64.4 °F 55.4 °F 73% 29.97 in 10.0 mi NW 11.5 mph - N/A   Clear
1:30 AM 62.6 °F 53.6 °F 72% 29.97 in 10.0 mi NNW 8.1 mph - N/A   Clear
1:50 AM 62.6 °F 53.6 °F 72% 29.97 in 10.0 mi NW 11.5 mph - N/A   Clear
2:11 AM 60.8 °F 51.8 °F 72% 29.98 in 10.0 mi NNW 8.1 mph - N/A   Clear
2:30 AM 60.8 °F 51.8 °F 72% 29.99 in 10.0 mi NW 5.8 mph - N/A   Clear
2:51 AM 59.0 °F 51.8 °F 77% 29.99 in 10.0 mi WNW 5.8 mph - N/A   Clear
3:10 AM 59.0 °F 51.8 °F 77% 29.99 in 10.0 mi West 4.6 mph - N/A   Clear
3:31 AM 59.0 °F 51.8 °F 77% 29.99 in 10.0 mi WNW 4.6 mph - N/A   Clear
3:50 AM 59.0 °F 51.8 °F 77% 30.00 in 10.0 mi WNW 5.8 mph - N/A   Clear
4:10 AM 57.2 °F 51.8 °F 82% 30.01 in 10.0 mi WNW 5.8 mph - N/A   Clear
4:31 AM 55.4 °F 51.8 °F 88% 30.01 in 10.0 mi WNW 5.8 mph - N/A   Clear
4:51 AM 55.4 °F 51.8 °F 88% 30.02 in 10.0 mi West 4.6 mph - N/A   Clear
5:10 AM 55.4 °F 51.8 °F 88% 30.02 in 10.0 mi WNW 5.8 mph - N/A   Clear
5:31 AM 55.4 °F 51.8 °F 88% 30.02 in 10.0 mi WNW 5.8 mph - N/A   Clear
5:50 AM 55.4 °F 51.8 °F 88% 30.02 in 10.0 mi WNW 4.6 mph - N/A   Clear
6:11 AM 55.4 °F 51.8 °F 88% 30.03 in 10.0 mi WNW 5.8 mph - N/A   Clear
6:30 AM 55.4 °F 51.8 °F 88% 30.04 in 10.0 mi West 6.9 mph - N/A   Clear
6:51 AM 55.4 °F 51.8 °F 88% 30.04 in 10.0 mi West 6.9 mph - N/A   Clear
7:11 AM 57.2 °F 51.8 °F 82% 30.04 in 10.0 mi WNW 4.6 mph - N/A   Clear
7:30 AM 59.0 °F 51.8 °F 77% 30.05 in 10.0 mi WNW 6.9 mph - N/A   Clear
7:51 AM 60.8 °F 53.6 °F 77% 30.05 in 10.0 mi WNW 6.9 mph - N/A   Clear
8:10 AM 60.8 °F 53.6 °F 77% 30.05 in 10.0 mi WNW 6.9 mph - N/A   Clear
8:30 AM 64.4 °F 57.2 °F 77% 30.06 in 10.0 mi WNW 5.8 mph - N/A   Clear
8:50 AM 64.4 °F 55.4 °F 73% 30.06 in 10.0 mi WNW 5.8 mph - N/A   Clear
9:10 AM 64.4 °F 55.4 °F 73% 30.06 in 10.0 mi WNW 6.9 mph - N/A   Clear
9:31 AM 68.0 °F 55.4 °F 64% 30.06 in 10.0 mi WNW 9.2 mph - N/A   Scattered Clouds
9:50 AM 69.8 °F 57.2 °F 64% 30.06 in 10.0 mi NNW 9.2 mph - N/A   Scattered Clouds
10:11 AM 69.8 °F 55.4 °F 60% 30.06 in 10.0 mi NNW 8.1 mph 18.4 mph N/A   Scattered Clouds
10:31 AM 69.8 °F 55.4 °F 60% 30.07 in 10.0 mi NNW 11.5 mph 16.1 mph N/A   Scattered Clouds
10:50 AM 69.8 °F 55.4 °F 60% 30.07 in 10.0 mi NW 10.4 mph - N/A   Clear
11:11 AM 69.8 °F 53.6 °F 56% 30.07 in 10.0 mi NNW 15.0 mph - N/A   Scattered Clouds
11:31 AM 69.8 °F 51.8 °F 53% 30.07 in 10.0 mi NNW 12.7 mph 16.1 mph N/A   Clear
11:50 AM 71.6 °F 51.8 °F 50% 30.07 in 10.0 mi NNW 8.1 mph 18.4 mph N/A   Clear
12:11 PM 73.4 °F 51.8 °F 47% 30.07 in 10.0 mi NNW 13.8 mph 19.6 mph N/A   Clear
12:30 PM 73.4 °F 53.6 °F 50% 30.07 in 10.0 mi NNW 10.4 mph 17.3 mph N/A   Clear
12:51 PM 73.4 °F 51.8 °F 47% 30.07 in 10.0 mi NW 11.5 mph 20.7 mph N/A   Scattered Clouds
1:11 PM 73.4 °F 51.8 °F 47% 30.06 in 10.0 mi NNW 15.0 mph 20.7 mph N/A   Scattered Clouds
1:30 PM 73.4 °F 51.8 °F 47% 30.06 in 10.0 mi NW 13.8 mph 18.4 mph N/A   Scattered Clouds
1:51 PM 73.4 °F 51.8 °F 47% 30.05 in 10.0 mi NNW 10.4 mph 19.6 mph N/A   Scattered Clouds
2:11 PM 73.4 °F 51.8 °F 47% 30.05 in 10.0 mi NW 9.2 mph 17.3 mph N/A   Scattered Clouds
2:30 PM 75.2 °F 51.8 °F 44% 30.05 in 10.0 mi NNW 10.4 mph 16.1 mph N/A   Clear
2:51 PM 75.2 °F 51.8 °F 44% 30.04 in 10.0 mi NNW 8.1 mph 19.6 mph N/A   Clear
3:11 PM 75.2 °F 51.8 °F 44% 30.04 in 10.0 mi NNW 10.4 mph 18.4 mph N/A   Clear
3:30 PM 75.2 °F 51.8 °F 44% 30.04 in 10.0 mi NW 12.7 mph 19.6 mph N/A   Clear
3:51 PM 75.2 °F 51.8 °F 44% 30.04 in 10.0 mi NNW 15.0 mph 18.4 mph N/A   Clear
4:10 PM 75.2 °F 51.8 °F 44% 30.03 in 10.0 mi NW 10.4 mph - N/A   Clear
4:30 PM 75.2 °F 51.8 °F 44% 30.03 in 10.0 mi NW 12.7 mph 17.3 mph N/A   Clear
4:51 PM 75.2 °F 51.8 °F 44% 30.03 in 10.0 mi NW 11.5 mph 17.3 mph N/A   Clear
5:11 PM 75.2 °F 51.8 °F 44% 30.03 in 10.0 mi NNW 10.4 mph - N/A   Clear
5:30 PM 75.2 °F 51.8 °F 44% 30.03 in 10.0 mi NW 8.1 mph - N/A   Clear
5:51 PM 75.2 °F 51.8 °F 44% 30.02 in 10.0 mi NW 8.1 mph - N/A   Clear
6:10 PM 75.2 °F 53.6 °F 47% 30.02 in 10.0 mi NW 6.9 mph - N/A   Clear
6:30 PM 75.2 °F 53.6 °F 47% 30.02 in 10.0 mi WNW 4.6 mph - N/A   Clear
6:50 PM 73.4 °F 53.6 °F 50% 30.02 in 10.0 mi WNW 4.6 mph - N/A   Clear
7:11 PM 73.4 °F 53.6 °F 50% 30.02 in 10.0 mi Calm Calm - N/A   Clear
7:31 PM 73.4 °F 55.4 °F 53% 30.02 in 10.0 mi WNW 3.5 mph - N/A   Clear
7:51 PM 71.6 °F 55.4 °F 57% 30.03 in 10.0 mi WNW 3.5 mph - N/A   Clear
8:10 PM 69.8 °F 55.4 °F 60% 30.03 in 10.0 mi Calm Calm - N/A   Clear
8:31 PM 69.8 °F 59.0 °F 68% 30.03 in 10.0 mi Calm Calm - N/A   Clear
8:51 PM 64.4 °F 57.2 °F 77% 30.03 in 10.0 mi Calm Calm - N/A   Clear
9:10 PM 64.4 °F 60.8 °F 88% 30.04 in 10.0 mi Calm Calm - N/A   Clear
9:30 PM 62.6 °F 59.0 °F 88% 30.05 in 10.0 mi Calm Calm - N/A   Clear
9:51 PM 60.8 °F 57.2 °F 88% 30.05 in 10.0 mi Calm Calm - N/A   Clear
10:10 PM 60.8 °F 57.2 °F 88% 30.05 in 10.0 mi Calm Calm - N/A   Clear
10:31 PM 60.8 °F 57.2 °F 88% 30.06 in 10.0 mi Calm Calm - N/A   Clear
10:50 PM 60.8 °F 57.2 °F 88% 30.06 in 10.0 mi Calm Calm - N/A   Clear
11:11 PM 59.0 °F 53.6 °F 82% 30.07 in 10.0 mi Calm Calm - N/A   Clear
11:31 PM 59.0 °F 55.4 °F 88% 30.07 in 10.0 mi Calm Calm - N/A   Clear
11:51 PM 59.0 °F 53.6 °F 82% 30.07 in 7.0 mi Calm Calm - N/A   Clear